Beaver Island, MI

7:19 PM EDT on June 27, 2017 (GMT -0400)
Beaver Island

Weather History for KSJX - March, 2013

Change the Weather History Date:

Sunday, March 24, 2013

  Actual Average Record
Temperature  
Mean Temperature 28 °F -  
Max Temperature 33 °F 36 °F 57 °F (1987)
Min Temperature 24 °F 20 °F -2 °F (2014)
Degree Days  
Heating Degree Days 36    
Moisture  
Dew Point 23 °F    
Average Humidity 76    
Maximum Humidity 90    
Minimum Humidity 55    
Precipitation  
Precipitation 0.00 in - - ()
Sea Level Pressure  
Sea Level Pressure 29.99 in    
Wind  
Wind Speed 5 mph (NNE)    
Max Wind Speed 13 mph    
Max Gust Speed 21 mph    
Visibility 10 miles    
Events      
Averages and records for this station are not official NWS values.
T = Trace of Precipitation, MM = Missing Value Source: NWS Daily Summary

Daily Weather History Graph

Daily Weather History Graph

Search for Another Location

Airport or City:

Trip Planner

Search our weather history database for the weather conditions in past years. The results will help you decide how hot, cold, wet, or windy it might be!

Date:

Astronomy

Mar. 24, 2013 Rise Set
Actual Time 7:37 AM EDT 8:00 PM EDT
Civil Twilight 7:07 AM EDT 8:30 PM EDT
Nautical Twilight 6:32 AM EDT 9:05 PM EDT
Astronomical Twilight 5:56 AM EDT 9:41 PM EDT
Moon 5:21 PM EDT (3/24) 5:54 AM EDT (3/24)
Length of Visible Light 13h 22m
Length of Day
12h 23m
Waxing Gibbous, 91% of the Moon is Illuminated
Mar 24
Waxing Gibbous
Mar 27
Full
Apr 3
Last Quarter
Apr 10
New
Apr 18
First Quarter

Hourly Weather History & Observations

Time (EDT) Temp. Windchill Dew Point Humidity Pressure Visibility Wind Dir Wind Speed Gust Speed Precip Events Conditions
12:16 AM 29.3 °F 24.3 °F 23.4 °F 78% 30.10 in 10.0 mi North 4.6 mph - N/A   Overcast
12:36 AM 28.9 °F 21.1 °F 23.0 °F 78% 30.10 in 10.0 mi North 8.1 mph - N/A   Overcast
12:56 AM 28.2 °F 21.0 °F 22.6 °F 80% 30.10 in 10.0 mi NNE 6.9 mph - N/A   Overcast
1:16 AM 28.2 °F 24.4 °F 22.6 °F 80% 30.10 in 10.0 mi NNW 3.5 mph - N/A   Overcast
1:37 AM 28.2 °F 24.4 °F 22.8 °F 80% 30.10 in 10.0 mi North 3.5 mph - N/A   Overcast
1:56 AM 28.2 °F 24.4 °F 23.0 °F 81% 30.09 in 10.0 mi North 3.5 mph - N/A   Overcast
2:16 AM 27.5 °F - 22.6 °F 82% 30.08 in 10.0 mi Calm Calm - N/A   Mostly Cloudy
2:36 AM 27.3 °F - 22.5 °F 82% 30.08 in 10.0 mi Calm Calm - N/A   Mostly Cloudy
2:56 AM 26.4 °F - 22.1 °F 84% 30.08 in 10.0 mi Calm Calm - N/A   Mostly Cloudy
3:16 AM 24.8 °F - 21.6 °F 87% 30.08 in 10.0 mi Calm Calm - N/A   Mostly Cloudy
3:36 AM 25.5 °F - 22.6 °F 89% 30.08 in 10.0 mi Calm Calm - N/A   Overcast
3:57 AM 27.3 °F - 23.5 °F 86% 30.07 in 10.0 mi Calm Calm - N/A   Overcast
4:16 AM 27.7 °F 23.8 °F 24.1 °F 86% 30.06 in 10.0 mi NNW 3.5 mph - N/A   Overcast
4:36 AM 28.4 °F 23.3 °F 24.1 °F 84% 30.06 in 10.0 mi NW 4.6 mph - N/A   Overcast
4:57 AM 28.6 °F 23.5 °F 24.4 °F 84% 30.06 in 10.0 mi NW 4.6 mph - N/A   Overcast
5:16 AM 28.9 °F 25.2 °F 24.8 °F 84% 30.06 in 10.0 mi NNW 3.5 mph - N/A   Overcast
5:36 AM 29.1 °F 24.1 °F 25.3 °F 86% 30.06 in 10.0 mi NW 4.6 mph - N/A   Overcast
5:57 AM 29.1 °F 25.4 °F 25.5 °F 86% 30.06 in 10.0 mi NNW 3.5 mph - N/A   Overcast
6:16 AM 28.9 °F 25.2 °F 25.5 °F 87% 30.06 in 10.0 mi NNW 3.5 mph - N/A   Overcast
6:36 AM 28.4 °F 24.6 °F 25.5 °F 89% 30.06 in 10.0 mi North 3.5 mph - N/A   Overcast
6:57 AM 28.4 °F - 25.7 °F 90% 30.06 in 10.0 mi Calm Calm - N/A   Overcast
7:16 AM 28.4 °F - 25.7 °F 90% 30.06 in 10.0 mi Calm Calm - N/A   Overcast
7:36 AM 28.2 °F 23.1 °F 25.7 °F 90% 30.05 in 10.0 mi NE 4.6 mph - N/A   Overcast
7:56 AM 28.2 °F 23.1 °F 25.7 °F 90% 30.06 in 10.0 mi ENE 4.6 mph - N/A   Overcast
8:16 AM 28.2 °F 22.0 °F 25.3 °F 89% 30.06 in 10.0 mi ENE 5.8 mph - N/A   Overcast
8:37 AM 28.6 °F 22.4 °F 25.2 °F 87% 30.06 in 10.0 mi ENE 5.8 mph - N/A   Overcast
8:56 AM 29.1 °F 21.3 °F 24.6 °F 83% 30.06 in 10.0 mi ENE 8.1 mph - N/A   Overcast
9:16 AM 29.3 °F 21.5 °F 24.6 °F 83% 30.06 in 10.0 mi ENE 8.1 mph - N/A   Overcast
9:36 AM 29.3 °F 23.2 °F 24.1 °F 81% 30.06 in 10.0 mi NE 5.8 mph - N/A   Overcast
9:56 AM 30.0 °F 21.7 °F 24.3 °F 79% 30.05 in 10.0 mi ENE 9.2 mph - N/A   Overcast
10:17 AM 30.7 °F 24.9 °F 24.3 °F 77% 30.04 in 10.0 mi NE 5.8 mph - N/A   Overcast
10:36 AM 30.6 °F 23.8 °F 24.1 °F 77% 30.04 in 10.0 mi NE 6.9 mph 16.1 mph N/A   Overcast
10:56 AM 30.7 °F 24.9 °F 24.1 °F 76% 30.05 in 10.0 mi ENE 5.8 mph - N/A   Overcast
11:17 AM 30.2 °F 22.6 °F 24.3 °F 79% 30.04 in 10.0 mi NE 8.1 mph - N/A   Overcast
11:36 AM 29.8 °F 21.5 °F 23.9 °F 79% 30.04 in 10.0 mi NE 9.2 mph - N/A   Overcast
11:56 AM 30.2 °F 22.6 °F 23.5 °F 76% 30.03 in 10.0 mi ENE 8.1 mph - N/A   Overcast
12:16 PM 30.7 °F 26.0 °F 23.7 °F 75% 30.03 in 10.0 mi NE 4.6 mph - N/A   Overcast
12:36 PM 30.9 °F 24.3 °F 22.8 °F 72% 30.02 in 10.0 mi NE 6.9 mph - N/A   Mostly Cloudy
12:56 PM 30.9 °F 23.5 °F 21.9 °F 69% 30.00 in 10.0 mi ENE 8.1 mph - N/A   Scattered Clouds
1:16 PM 31.5 °F 24.2 °F 21.4 °F 66% 30.00 in 10.0 mi ENE 8.1 mph - N/A   Clear
1:36 PM 32.0 °F 25.6 °F 21.2 °F 64% 29.99 in 10.0 mi NNE 6.9 mph - N/A   Clear
1:57 PM 32.2 °F 24.4 °F 20.7 °F 63% 29.98 in 10.0 mi NNE 9.2 mph - N/A   Clear
2:16 PM 32.9 °F 25.9 °F 20.5 °F 60% 29.97 in 10.0 mi North 8.1 mph - N/A   Clear
2:36 PM 32.9 °F 25.9 °F 19.9 °F 59% 29.96 in 10.0 mi North 8.1 mph - N/A   Clear
2:57 PM 32.9 °F 27.5 °F 19.8 °F 59% 29.95 in 10.0 mi North 5.8 mph - N/A   Clear
3:16 PM 33.4 °F 25.4 °F 19.2 °F 56% 29.94 in 10.0 mi North 10.4 mph - N/A   Clear
3:36 PM 33.8 °F 27.0 °F 19.4 °F 56% 29.93 in 10.0 mi North 8.1 mph - N/A   Clear
3:56 PM 33.8 °F 27.0 °F 19.6 °F 56% 29.91 in 10.0 mi NE 8.1 mph - N/A   Clear
4:16 PM 33.8 °F 25.8 °F 19.2 °F 55% 29.90 in 10.0 mi NNE 10.4 mph - N/A   Clear
4:37 PM 33.8 °F 25.8 °F 19.6 °F 56% 29.89 in 10.0 mi North 10.4 mph - N/A   Clear
4:56 PM 33.3 °F 24.1 °F 22.1 °F 64% 29.88 in 10.0 mi North 12.7 mph 19.6 mph N/A   Clear
5:16 PM 32.9 °F 24.1 °F 22.1 °F 65% 29.88 in 10.0 mi North 11.5 mph 20.7 mph N/A   Clear
5:37 PM 32.4 °F 24.6 °F 21.9 °F 65% 29.88 in 10.0 mi North 9.2 mph 19.6 mph N/A   Clear
5:56 PM 32.0 °F 22.5 °F 21.7 °F 66% 29.87 in 10.0 mi North 12.7 mph 18.4 mph N/A   Clear
6:16 PM 32.0 °F 23.0 °F 22.1 °F 67% 29.87 in 10.0 mi North 11.5 mph 16.1 mph N/A   Clear
6:36 PM 31.6 °F 23.7 °F 22.1 °F 68% 29.87 in 10.0 mi North 9.2 mph 18.4 mph N/A   Clear
6:56 PM 31.6 °F 23.1 °F 23.0 °F 70% 29.87 in 10.0 mi North 10.4 mph 16.1 mph N/A   Clear
7:17 PM 31.5 °F 22.9 °F 23.5 °F 73% 29.87 in 10.0 mi North 10.4 mph - N/A   Clear
7:36 PM 31.1 °F 23.7 °F 23.5 °F 74% 29.87 in 10.0 mi North 8.1 mph 17.3 mph N/A   Clear
7:56 PM 31.1 °F 22.4 °F 23.4 °F 73% 29.87 in 10.0 mi North 10.4 mph - N/A   Clear
8:17 PM 30.7 °F 22.6 °F 23.7 °F 75% 29.87 in 10.0 mi North 9.2 mph - N/A   Clear
8:36 PM 30.6 °F 23.1 °F 23.9 °F 76% 29.87 in 10.0 mi North 8.1 mph - N/A   Clear
8:56 PM 29.8 °F 23.0 °F 23.4 °F 77% 29.87 in 10.0 mi North 6.9 mph - N/A   Clear
9:16 PM 29.8 °F 23.9 °F 23.2 °F 76% 29.88 in 10.0 mi North 5.8 mph - N/A   Clear
9:36 PM 29.3 °F 25.6 °F 23.2 °F 78% 29.88 in 10.0 mi North 3.5 mph - N/A   Clear
9:56 PM 29.3 °F 24.3 °F 23.4 °F 78% 29.88 in 10.0 mi North 4.6 mph - N/A   Clear
10:16 PM 29.3 °F 23.2 °F 23.5 °F 79% 29.88 in 10.0 mi North 5.8 mph - N/A   Clear
10:37 PM 29.3 °F 24.3 °F 24.3 °F 81% 29.88 in 10.0 mi North 4.6 mph - N/A   Clear
10:56 PM 29.7 °F 24.7 °F 24.8 °F 82% 29.87 in 10.0 mi North 4.6 mph - N/A   Clear
11:16 PM 29.5 °F 24.5 °F 25.2 °F 84% 29.87 in 10.0 mi North 4.6 mph - N/A   Clear
11:37 PM 29.7 °F 24.7 °F 25.5 °F 85% 29.87 in 10.0 mi North 4.6 mph - N/A   Clear
11:56 PM 29.3 °F 23.2 °F 25.3 °F 85% 29.86 in 10.0 mi North 5.8 mph - N/A   Clear